LAPAN-TUBSAT

Last updated on Mon Jun 22 2026 00:02:51 GMT+0000 (Coordinated Universal Time)

1 29709U 07001A 26172.49664299 .00001154 00000+0 13862-3 0 9995 2 29709 98.1347 171.8184 0012315 165.0172 195.1409 14.85956536 51798
UTC large
Height (km)
Speed (km/s)
/
Latitude / Longitude
Inclination (degrees)
Orbital Period (minutes)
Azimuth
Elevation
Range (km)
Doppler Factor

Next 0 passes for location: London (51.5072 / 0.1276)

No passes found over London.
LAPAN-TUBSAT